カタログに戻る

ONEWEB-0607

運用中通信PO
NORAD 54671·PAYLOAD·🇬🇧 United Kingdom

打ち上げ Dec 8, 2022 から Cape Canaveral Space Force Station

Loading…

次のパス (今後24時間)

TLE

最新Source: CelesTrak SupGP

元期: Sep 14, 2026, 09:29 UTC

1 54671C 22166AF  26257.39529353  .00002434  00000+0  59006-2 0  2572
2 54671  87.9281 226.2167 0002163  84.9737  24.8290 13.21824762    18

AllMySatでONEWEB-0607をリアルタイム追跡

Download on the App Store